Location: St Paul
(33.4390°N, 83.7350°W)
Time: 21:25:27
(UTC-04:00)

USA 234 - Pass Details

Date: 06 October 2017
Orbit: 1101 x 1107 km, 123.0° (Epoch: 15 October)

Event Time Altitude Azimuth Distance (km) Brightness Sun altitude
Exits shadow 20:41:16 30° 86° (E) 1,849 3.9 -19.4°
Maximum altitude 20:43:51 44° 39° (NE) 1,492 3.7 -19.9°
Drops below altitude 10° 20:49:58 10° 330° (NNW) 2,969 6.0 -21.2°
Sets 20:52:34 0° 324° (NW) 3,930 6.8 -21.7°
